Погода в Чулаккургане

Казахстан     43°45′49″N   69°10′39″E
темп.,
°C
ветер,
м/с
пор.,
м/с
влажн.,
%
обл.,
%
осадки,
мм/ч
давл.,
гПа
погр.,
м
1 марта, пн
пн100:00+1ююз345684 0.0 102230
03:00+2ююз455468 0.0 102141
06:00+2ююз455468 0.0 102155
09:00+3юз4552100 0.0 102158
12:00+8юз353782 0.0 1020392
15:00+11зюз37323 0.0 10191064
18:00+8юз575120 0.0 1019118
21:00+4юз34563 0.0 101925
2 марта, вт
вт200:00+5юз45551 0.0 101936
03:00+4ююз610630 0.0 1019129
06:00+3юз56650 0.0 101967
09:00+2юз007014 0.0 102129
12:00+5ссз33637 0.0 1022309
15:00+7ссз435765 0.0 1022497
18:00+4ссз347382 0.0 1023429
21:00+2с2286100 0.1 1025273
3 марта, ср
ср300:00+1ссз4479100 0.1 1026279
03:000с3371100 0.0 1026310
06:00−1всв2380100 0.1 1026278
09:00−2всв2387100 0.1 1026212
12:00+1в3382100 0.1 1026409
15:00+4в4465100 0.0 1025668
18:00+5всв556851 0.0 1024446
21:00+1в339645 0.0 102379
4 марта, чт
чт400:000вюв019838 0.0 102322
03:00+1ююв23758 0.0 102124
06:00+2юз34684 0.0 102029
09:00+3ююз34730 0.0 102059
12:00+10юз8125811 0.0 10171206
15:00+12юз1014480 0.0 10151546
18:00+11з6115416 0.0 1015867
21:00+7зсз5126767 0.0 1017386
5 марта, пт
пт500:00+4з129183 1.6 1020278
03:00+3ссз3683100 1.3 1024561
06:00−1ссз5782100 1.4 1027427
09:00−1сз017398 0.0 1031340
12:00+3ю344876 0.0 1032838
15:00+6ссз33340 0.0 10301134
18:00+4ссв45520 0.0 1029650
21:00+2св35660 0.0 1028119